Weather History for Randolph AFB, TX

Change the Weather History Date:

Wednesday, March 28, 2012

  Actual Average Record
Temperature  
Mean Temperature 70 °F -  
Max Temperature 76 °F 71 °F 92 °F (2014)
Min Temperature 66 °F 53 °F 40 °F (2009)
Cooling Degree Days 6    
Growing Degree Days 20 (Base 50)    
Moisture  
Dew Point 67 °F    
Average Humidity 96    
Maximum Humidity 100    
Minimum Humidity 72    
Precipitation  
Precipitation 0.02 in - - ()
Sea Level Pressure  
Sea Level Pressure 29.96 in    
Wind  
Wind Speed 8 mph (SE)    
Max Wind Speed 14 mph    
Max Gust Speed -    
Visibility 8 miles    
Events Rain    
Averages and records for this station are not official NWS values.
T = Trace of Precipitation, MM = Missing Value Source: NWS Daily Summary

Daily Weather History Graph

Daily Weather History Graph

Search for Another Location

Airport:

Trip Planner

Search our weather history database for the weather conditions in past years. The results will help you decide how hot, cold, wet, or windy it might be!

Date:

Astronomy

Mar. 28, 2012 Rise Set
Actual Time 7:26 AM CDT 7:49 PM CDT
Civil Twilight 7:02 AM CDT 8:13 PM CDT
Nautical Twilight 6:35 AM CDT 8:41 PM CDT
Astronomical Twilight 6:06 AM CDT 9:09 PM CDT
Moon 11:07 AM CDT (3/28) 12:30 AM CDT (3/28)
Length of Visible Light 13h 10m
Length of Day
12h 22m
Waxing Crescent, 30% of the Moon is Illuminated
Mar 28
Waxing Crescent
Mar 30
First Quarter
Apr 6
Full
Apr 13
Last Quarter
Apr 21
New

Hourly Weather History & Observations

Time (CDT) Temp. Dew Point Humidity Pressure Visibility Wind Dir Wind Speed Gust Speed Precip Events Conditions
12:45 AM 66.2 °F 66.2 °F 100% 30.02 in 10.0 mi SSE 10.4 mph - N/A   Mostly Cloudy
12:55 AM 66.6 °F 66.2 °F 99% 30.01 in 10.0 mi SSE 11.5 mph - N/A   Overcast
1:14 AM 66.2 °F 66.2 °F 100% 30.01 in 10.0 mi SSE 9.2 mph - N/A   Overcast
1:55 AM 67.3 °F 67.1 °F 99% 30.00 in 10.0 mi South 9.2 mph - N/A   Overcast
2:03 AM 68.0 °F 68.0 °F 100% 30.00 in 10.0 mi SSE 10.4 mph - N/A   Overcast
2:06 AM 68.0 °F 68.0 °F 100% 30.00 in 10.0 mi SSE 8.1 mph - N/A   Overcast
2:27 AM 68.0 °F 68.0 °F 100% 29.99 in 10.0 mi SSE 8.1 mph - N/A   Overcast
2:30 AM 68.0 °F 68.0 °F 100% 29.99 in 10.0 mi SSE 8.1 mph - N/A   Overcast
2:40 AM 68.0 °F 68.0 °F 100% 29.99 in 10.0 mi SSE 9.2 mph - N/A   Overcast
2:44 AM 68.0 °F 68.0 °F 100% 29.99 in 10.0 mi SSE 6.9 mph - N/A   Overcast
2:47 AM 68.0 °F 68.0 °F 100% 29.99 in 10.0 mi SE 5.8 mph - N/A   Overcast
2:55 AM 67.3 °F 66.9 °F 99% 29.99 in 10.0 mi SE 4.6 mph - N/A   Overcast
3:55 AM 67.3 °F 66.9 °F 99% 29.98 in 10.0 mi SSE 6.9 mph - N/A   Overcast
4:04 AM 68.0 °F 68.0 °F 100% 29.97 in 8.0 mi SSE 6.9 mph - N/A Rain Light Rain
4:08 AM 68.0 °F 66.2 °F 94% 29.97 in 8.0 mi SSE 6.9 mph - N/A   Light Drizzle
4:11 AM 68.0 °F 68.0 °F 100% 29.97 in 7.0 mi SSE 6.9 mph - N/A   Light Drizzle
4:32 AM 68.0 °F 68.0 °F 100% 29.97 in 7.0 mi SSE 9.2 mph - N/A   Overcast
4:44 AM 68.0 °F 68.0 °F 100% 29.96 in 6.0 mi SSE 8.1 mph - N/A Rain Light Rain
4:45 AM 68.0 °F 68.0 °F 100% 29.96 in 5.0 mi SSE 8.1 mph - N/A   Light Drizzle
4:50 AM 68.0 °F 68.0 °F 100% 29.97 in 4.0 mi SSE 9.2 mph - N/A   Light Drizzle
4:52 AM 68.0 °F 68.0 °F 100% 29.97 in 4.0 mi SSE 9.2 mph - N/A   Light Drizzle
4:55 AM 67.3 °F 67.3 °F 100% 29.97 in 4.0 mi SSE 9.2 mph - 0.00 in   Light Drizzle
4:56 AM 68.0 °F 68.0 °F 100% 29.97 in 4.0 mi SSE 9.2 mph - N/A   Light Drizzle
4:59 AM 68.0 °F 68.0 °F 100% 29.97 in 4.0 mi SSE 8.1 mph - N/A   Light Drizzle
5:00 AM 68.0 °F 68.0 °F 100% 29.97 in 5.0 mi SSE 9.2 mph - N/A   Light Drizzle
5:01 AM 68.0 °F 68.0 °F 100% 29.97 in 5.0 mi SSE 10.4 mph - N/A   Overcast
5:02 AM 68.0 °F 68.0 °F 100% 29.97 in 5.0 mi SSE 9.2 mph - N/A   Overcast
5:04 AM 68.0 °F 68.0 °F 100% 29.97 in 5.0 mi SSE 10.4 mph - N/A Rain Light Rain
5:09 AM 68.0 °F 68.0 °F 100% 29.97 in 6.0 mi SSE 10.4 mph - N/A   Light Drizzle
5:14 AM 68.0 °F 68.0 °F 100% 29.97 in 7.0 mi SSE 8.1 mph - N/A   Overcast
5:27 AM 68.0 °F 68.0 °F 100% 29.96 in 5.0 mi SSE 6.9 mph - N/A   Light Drizzle
5:30 AM 68.0 °F 68.0 °F 100% 29.96 in 5.0 mi SSE 9.2 mph - N/A   Light Drizzle
5:34 AM 68.0 °F 68.0 °F 100% 29.96 in 5.0 mi SSE 8.1 mph - N/A   Overcast
5:35 AM 68.0 °F 68.0 °F 100% 29.96 in 6.0 mi SSE 8.1 mph - N/A   Overcast
5:54 AM 68.0 °F 68.0 °F 100% 29.96 in 8.0 mi SSE 10.4 mph - N/A   Overcast
5:55 AM 67.3 °F 67.3 °F 100% 29.96 in 8.0 mi SSE 9.2 mph - 0.00 in   Overcast
6:55 AM 66.9 °F 66.9 °F 100% 29.95 in 8.0 mi SE 10.4 mph - N/A   Overcast
7:19 AM 68.0 °F 68.0 °F 100% 29.94 in 5.0 mi SE 12.7 mph - N/A   Overcast
7:45 AM 68.0 °F 68.0 °F 100% 29.92 in 4.0 mi SE 13.8 mph - N/A   Overcast
7:55 AM 67.1 °F 67.1 °F 100% 29.92 in 4.0 mi ESE 10.4 mph - N/A   Overcast
8:30 AM 66.2 °F 66.2 °F 100% 29.93 in 5.0 mi ESE 10.4 mph - N/A   Mostly Cloudy
8:49 AM 66.2 °F 66.2 °F 100% 29.94 in 10.0 mi ESE 8.1 mph - N/A   Mostly Cloudy
8:55 AM 66.9 °F 66.9 °F 100% 29.94 in 10.0 mi East 8.1 mph - N/A   Mostly Cloudy
9:12 AM 68.0 °F 68.0 °F 100% 29.95 in 7.0 mi East 9.2 mph - N/A Rain Light Rain
9:34 AM 68.0 °F 68.0 °F 100% 29.94 in 7.0 mi East 8.1 mph - N/A   Mostly Cloudy
9:51 AM 68.0 °F 68.0 °F 100% 29.96 in 10.0 mi East 4.6 mph - N/A   Overcast
9:55 AM 67.8 °F 67.8 °F 100% 29.97 in 10.0 mi SSE 4.6 mph - 0.00 in   Overcast
10:18 AM 68.0 °F 68.0 °F 100% 30.00 in 7.0 mi SW 10.4 mph - N/A Rain Light Rain
10:38 AM 66.2 °F 66.2 °F 100% 30.00 in 10.0 mi WSW 6.9 mph - N/A   Light Drizzle
10:55 AM 66.9 °F 65.5 °F 95% 30.01 in 10.0 mi WSW 8.1 mph - 0.00 in   Overcast
11:11 AM 66.2 °F 64.4 °F 94% 30.01 in 10.0 mi WSW 9.2 mph - N/A   Overcast
11:55 AM 67.8 °F 63.5 °F 86% 30.01 in 10.0 mi West 6.9 mph - 0.00 in   Mostly Cloudy
12:55 PM 71.4 °F 65.5 °F 81% 30.01 in 10.0 mi Variable 5.8 mph - N/A   Mostly Cloudy
1:20 PM 71.6 °F 66.2 °F 83% 30.01 in 10.0 mi SE 4.6 mph - N/A   Mostly Cloudy
1:55 PM 73.2 °F 66.2 °F 79% 29.99 in 10.0 mi Variable 3.5 mph - N/A   Mostly Cloudy
2:53 PM 75.2 °F 66.2 °F 73% 29.97 in 10.0 mi South 3.5 mph - N/A   Mostly Cloudy
2:54 PM 75.2 °F 66.2 °F 73% 29.96 in 10.0 mi South 3.5 mph - N/A   Mostly Cloudy
2:55 PM 74.5 °F 66.6 °F 76% 29.96 in 10.0 mi Calm Calm - N/A   Mostly Cloudy
3:55 PM 75.6 °F 66.0 °F 72% 29.94 in 10.0 mi Calm Calm - N/A   Scattered Clouds
4:55 PM 75.2 °F 65.8 °F 73% 29.91 in 10.0 mi Variable 4.6 mph - N/A   Mostly Cloudy
5:55 PM 73.6 °F 66.0 °F 77% 29.91 in 10.0 mi East 10.4 mph - N/A   Overcast
6:53 PM 69.8 °F 66.2 °F 88% 29.92 in 10.0 mi East 6.9 mph - N/A   Overcast
6:55 PM 70.2 °F 65.7 °F 86% 29.92 in 10.0 mi East 8.1 mph - N/A   Overcast
7:21 PM 69.8 °F 68.0 °F 94% 29.91 in 10.0 mi ENE 9.2 mph - N/A   Overcast
7:23 PM 69.8 °F 68.0 °F 94% 29.91 in 10.0 mi ENE 9.2 mph - N/A   Overcast
7:26 PM 69.8 °F 68.0 °F 94% 29.91 in 10.0 mi ENE 9.2 mph - N/A   Overcast
7:52 PM 69.8 °F 68.0 °F 94% 29.92 in 10.0 mi East 5.8 mph - N/A   Light Drizzle
7:55 PM 69.6 °F 68.0 °F 95% 29.92 in 10.0 mi East 6.9 mph - 0.00 in   Light Drizzle
7:59 PM 69.8 °F 68.0 °F 94% 29.92 in 10.0 mi East 8.1 mph - N/A Rain Light Rain
8:23 PM 68.0 °F 68.0 °F 100% 29.93 in 10.0 mi East 5.8 mph - N/A   Overcast
8:41 PM 68.0 °F 68.0 °F 100% 29.94 in 10.0 mi East 9.2 mph - N/A   Overcast
8:51 PM 68.0 °F 68.0 °F 100% 29.93 in 10.0 mi ESE 5.8 mph - N/A   Overcast
8:55 PM 68.4 °F 68.0 °F 99% 29.94 in 10.0 mi East 5.8 mph - 0.01 in   Overcast
9:01 PM 68.0 °F 68.0 °F 100% 29.93 in 10.0 mi East 5.8 mph - N/A   Overcast
9:37 PM 68.0 °F 68.0 °F 100% 29.94 in 10.0 mi SE 8.1 mph - N/A   Overcast
9:55 PM 67.1 °F 66.7 °F 99% 29.96 in 10.0 mi East 4.6 mph - N/A   Mostly Cloudy
10:22 PM 66.2 °F 66.2 °F 100% 29.96 in 10.0 mi ENE 4.6 mph - N/A Rain Light Rain
10:55 PM 66.4 °F 66.4 °F 100% 29.97 in 10.0 mi NE 3.5 mph - 0.00 in Rain Light Rain
11:28 PM 66.2 °F 66.2 °F 100% 29.96 in 10.0 mi NE 3.5 mph - N/A   Mostly Cloudy
11:48 PM 66.2 °F 66.2 °F 100% 29.96 in 10.0 mi East 4.6 mph - N/A   Overcast
11:55 PM 66.2 °F 66.2 °F 100% 29.96 in 10.0 mi East 4.6 mph - 0.01 in   Overcast